This demonstration page uses our WeatherBlox Daily Observations layout. Learn more.

40.92945, -100.16068

Hourly Observations for January 10, 2017

Temp ( °F °C ) Dew Point ( °F °C ) Humidity (%) Winds ( mph kmh ) Pressure ( in mb ) Visibility ( mi km ) Precip ( " mm )
12:15 am 00:15 Partly Cloudy 27 -2.6 26 -3.6 93 93 Calm 29.53 1000 10 16.0934 0 0
12:35 am 00:35 Partly Cloudy 29 -1.9 27 -3 92 92 W 5 7 29.53 1000 10 16.0934 0 0
12:55 am 00:55 Cloudy 31 -0.7 28 -2 91 91 NW 5 7 29.5 999 10 16.0934 0 0
1:15 am 01:15 Cloudy with Light Wintry Mix 32 0 29 -1.4 90 90 Calm 29.5 999 10 16.0934 0 0
1:35 am 01:35 Cloudy with Light Wintry Mix 32 0.2 30 -1 92 92 Calm 29.47 998 10 16.0934 0 0
1:55 am 01:55 Cloudy with Light Rain 33 0.5 31 -0.8 91 91 NW 6 9 29.47 998 7 11.26538 0 0
2:15 am 02:15 Cloudy with Light Rain 34 1.2 32 -0.2 91 91 Calm 29.44 997 10 16.0934 0 0
2:35 am 02:35 Cloudy 34 1 31 -0.3 91 91 Calm 29.44 997 10 16.0934 0 0
2:55 am 02:55 Cloudy 34 1.3 32 0 91 91 SSW 3 6 29.47 998 10 16.0934 0 0
3:15 am 03:15 Cloudy 34 1.2 32 0 92 92 W 5 7 29.5 999 10 16.0934 0 0
3:35 am 03:35 Mostly Cloudy 35 1.6 33 0.3 91 91 W 7 11 29.47 998 10 16.0934 0 0
3:55 am 03:55 Partly Cloudy 36 2 33 0.5 90 90 W 6 9 29.47 998 10 16.0934 0 0
4:15 am 04:15 Clear 37 2.6 33 0.7 87 87 W 8 13 29.47 998 10 16.0934 0 0
4:35 am 04:35 Partly Cloudy 36 2.4 33 0.4 87 87 W 7 11 29.47 998 10 16.0934 0 0
4:55 am 04:55 Partly Cloudy 37 2.5 33 0.5 87 87 WNW 10 17 29.5 999 10 16.0934 0 0
5:15 am 05:15 Mostly Cloudy 39 3.9 33 0.5 79 79 WNW 14 22 29.53 1000 10 16.0934 0 0
5:35 am 05:35 Partly Cloudy 39 4 33 0.3 77 77 NW 15 24 29.56 1001 10 16.0934 0 0
5:55 am 05:55 Clear 37 2.5 31 -0.7 80 80 NNW 21 33 29.59 1002 10 16.0934 0.01 0.254
6:15 am 06:15 Clear 35 1.6 30 -1.3 81 81 NNW 17 28 29.65 1004 10 16.0934 0 0
6:35 am 06:35 Clear 33 0.3 27 -2.7 81 81 NW 16 26 29.68 1005 10 16.0934 0 0
6:55 am 06:55 Clear 30 -1.1 24 -4.3 79 79 NNW 26 43 29.74 1007 10 16.0934 0 0
7:15 am 07:15 Mostly Cloudy 28 -2.4 22 -5.5 80 80 NW 18 30 29.77 1008 10 16.0934 0 0
7:35 am 07:35 Partly Cloudy 27 -3 22 -5.8 81 81 NW 18 30 29.83 1010 10 16.0934 0 0
7:55 am 07:55 Clear 26 -3.3 20 -6.4 79 79 NW 17 28 29.83 1010 10 16.0934 0 0
8:15 am 08:15 Sunny 26 -3.2 20 -6.5 78 78 NW 17 28 29.83 1010 10 16.0934 0 0
8:35 am 08:35 Sunny 26 -3.2 20 -6.6 78 78 NW 13 20 29.85 1011 10 16.0934 0 0
8:55 am 08:55 Sunny 26 -3.3 20 -6.7 78 78 NW 9 15 29.85 1011 10 16.0934 0 0
9:15 am 09:15 Sunny 26 -3.1 20 -6.5 78 78 NW 7 11 29.85 1011 10 16.0934 0 0
9:35 am 09:35 Sunny 27 -2.7 20 -6.4 76 76 NW 12 19 29.88 1012 10 16.0934 0 0
9:55 am 09:55 Partly Cloudy 27 -2.6 21 -6.2 77 77 NW 14 22 29.91 1013 10 16.0934 0 0
10:15 am 10:15 Partly Cloudy 29 -1.9 22 -5.7 76 76 NW 12 19 29.91 1013 10 16.0934 0 0
10:35 am 10:35 Sunny 30 -1.2 22 -5.3 74 74 NW 9 15 29.88 1012 10 16.0934 0 0
10:55 am 10:55 Sunny 31 -0.8 23 -5.1 73 73 WNW 9 15 29.91 1013 10 16.0934 0 0
11:15 am 11:15 Sunny 31 -0.3 23 -4.8 72 72 NW 9 15 29.91 1013 10 16.0934 0 0
11:35 am 11:35 Sunny 32 0 24 -4.6 71 71 NW 10 17 29.91 1013 10 16.0934 0 0
11:55 am 11:55 Sunny 32 0 24 -4.6 71 71 W 7 11 29.88 1012 10 16.0934 0 0
12:15 pm 12:15 Sunny 32 0.1 24 -4.5 72 72 W 6 9 29.88 1012 10 16.0934 0 0
12:35 pm 12:35 Sunny 33 0.5 24 -4.3 71 71 Calm 29.88 1012 10 16.0934 0 0
12:55 pm 12:55 Sunny 33 0.7 24 -4.2 70 70 WNW 3 6 29.85 1011 10 16.0934 0 0
1:15 pm 13:15 Sunny 34 1 24 -4.2 69 69 Calm 29.85 1011 10 16.0934 0 0
1:35 pm 13:35 Sunny 34 1.3 25 -4 68 68 Calm 29.85 1011 10 16.0934 0 0
1:55 pm 13:55 Sunny 35 1.8 26 -3.5 68 68 Calm 29.83 1010 10 16.0934 0 0
2:15 pm 14:15 Partly Cloudy 37 2.9 27 -2.7 67 67 SSE 7 11 29.83 1010 10 16.0934 0 0
2:35 pm 14:35 Partly Cloudy 38 3.5 28 -2.2 67 67 SE 7 11 29.8 1009 10 16.0934 0 0
2:55 pm 14:55 Mostly Cloudy 40 4.2 29 -1.6 66 66 SE 8 13 29.77 1008 10 16.0934 0 0
3:15 pm 15:15 Partly Cloudy 41 5.2 30 -1 65 65 SE 5 7 29.77 1008 10 16.0934 0 0
3:35 pm 15:35 Partly Cloudy 43 6.1 32 -0.1 65 65 SSE 7 11 29.77 1008 10 16.0934 0 0
3:55 pm 15:55 Partly Cloudy 44 6.6 32 0 63 63 SSE 7 11 29.77 1008 10 16.0934 0 0
4:35 pm 16:35 Sunny 43 6 32 -0.1 65 65 SSE 8 13 29.77 1008 10 16.0934 0 0
4:55 pm 16:55 Sunny 40 4.7 31 -0.3 70 70 SSE 9 15 29.77 1008 10 16.0934 0 0
5:15 pm 17:15 Sunny 38 3.6 31 -0.5 75 75 SSE 12 19 29.8 1009 10 16.0934 0 0
5:35 pm 17:35 Clear 38 3.6 31 -0.6 74 74 SSE 10 17 29.8 1009 10 16.0934 0 0
5:55 pm 17:55 Mostly Cloudy 38 3.4 30 -0.9 74 74 SSE 14 22 29.8 1009 10 16.0934 0 0
6:15 pm 18:15 Partly Cloudy 38 3.5 30 -1.3 71 71 SE 13 20 29.8 1009 10 16.0934 0 0
6:35 pm 18:35 Clear 38 3.3 29 -1.5 71 71 SE 15 24 29.77 1008 10 16.0934 0 0
6:55 pm 18:55 Partly Cloudy 39 4 30 -1.3 69 69 S 18 30 29.74 1007 10 16.0934 0 0
7:15 pm 19:15 Clear 39 4.1 30 -1.3 68 68 S 23 37 29.74 1007 10 16.0934 0 0
7:35 pm 19:35 Clear 40 4.2 29 -1.4 67 67 S 14 22 29.74 1007 10 16.0934 0 0
7:55 pm 19:55 Clear 39 3.9 29 -1.6 68 68 S 17 28 29.74 1007 10 16.0934 0 0
8:15 pm 20:15 Clear 38 3.2 29 -1.7 71 71 S 16 26 29.77 1008 10 16.0934 0 0
8:35 pm 20:35 Clear 37 2.8 28 -2 71 71 S 13 20 29.77 1008 10 16.0934 0 0
8:55 pm 20:55 Clear 37 2.9 28 -2.1 70 70 SSW 14 22 29.77 1008 10 16.0934 0 0
9:15 pm 21:15 Clear 36 2.3 28 -2.3 72 72 SSW 9 15 29.77 1008 10 16.0934 0 0
9:35 pm 21:35 Clear 36 2.3 28 -2.5 71 71 S 9 15 29.77 1008 10 16.0934 0 0
9:55 pm 21:55 Clear 36 2.3 28 -2.5 71 71 S 9 15 29.77 1008 10 16.0934 0 0
10:15 pm 22:15 Clear 37 2.5 27 -2.7 69 69 SSW 13 20 29.77 1008 10 16.0934 0 0
10:35 pm 22:35 Clear 37 2.7 27 -2.7 68 68 SSW 12 19 29.74 1007 10 16.0934 0 0
10:55 pm 22:55 Clear 37 3 27 -2.7 67 67 SSW 7 11 29.74 1007 10 16.0934 0 0
11:15 pm 23:15 Clear 37 3 27 -2.7 67 67 S 6 9 29.74 1007 10 16.0934 0 0
11:35 pm 23:35 Clear 39 3.7 28 -2.4 65 65 SSW 10 17 29.71 1006 10 16.0934 0 0
11:55 pm 23:55 Clear 40 4.7 28 -2.1 62 62 SSW 10 17 29.71 1006 10 16.0934 0 0

Powered by AerisWeather